M I D A S
Marine Information and Data Acquisition System
Tripno 1147 of the Zeeleeuw from 2006-08-17 06:46:29 to 2006-08-17 13:01:26
Back to CruiseResearch ActivitiesStationsMapUnderway DataData graphs

EquipmentUnitsComments
TimeDGPSUTC
LatitudeDGPSDM.mWGS84
LongitudeDGPSDM.mWGS84
SpeedMeteo Stationm/sRelative wind speed
DirectionMeteo StationdegRelative wind direction
TemperatureMeteo Stationdeg CelciusAir temperature
PressureMeteo StationPaAtmospheric pressure
HumidityMeteo Station%Relative humidity
Missing or incorrect values are displayed as -999
Metereological data collected by the RV Zeeleeuw from 2006-08-17 06:44:46 to 2006-08-17 13:12:28
Time Latitude Longitude Speed Direction Temperature Pressure Humidity
2006-08-17 06:45 51°13.613 2°56.027 3.1 11 16.3 100170 96
2006-08-17 06:46 51°13.641 2°55.928 2 34 16.3 100170 96
2006-08-17 06:47 51°13.687 2°55.827 1.2 17 16.3 100170 96
2006-08-17 06:48 51°13.717 2°55.734 2.4 13 16.3 100180 96
2006-08-17 06:49 51°13.732 2°55.724 2.9 35 16.3 100170 96
2006-08-17 06:50 51°13.72 2°55.714 3.3 34 16.3 100170 96
2006-08-17 06:51 51°13.748 2°55.699 2.6 34 16.4 100180 96
2006-08-17 06:52 51°13.806 2°55.655 1.3 37 16.4 100180 96
2006-08-17 06:53 51°13.875 2°55.601 2.8 40 16.5 100180 96
2006-08-17 06:54 51°13.951 2°55.543 1.3 32 16.5 100180 96
2006-08-17 06:55 51°14.028 2°55.488 0.5 24 16.5 100180 96
2006-08-17 06:56 51°14.123 2°55.414 0.7 35 16.5 100180 96
2006-08-17 06:57 51°14.226 2°55.309 1 302 16.5 100180 96
2006-08-17 06:58 51°14.323 2°55.16 1.9 308 16.5 100180 96
2006-08-17 06:59 51°14.419 2°54.959 2.7 307 16.5 100170 95
2006-08-17 07:00 51°14.558 2°54.786 1.1 350 16.5 100180 95
2006-08-17 07:01 51°14.72 2°54.645 2.2 237 16.6 100170 95
2006-08-17 07:02 51°14.862 2°54.455 3 241 16.6 100170 95
2006-08-17 07:03 51°14.989 2°54.214 4.4 240 16.6 100180 95
2006-08-17 07:04 51°15.087 2°53.94 4.1 305 16.6 100170 95
2006-08-17 07:05 51°15.195 2°53.672 2.2 304 16.7 100170 95
2006-08-17 07:06 51°15.309 2°53.419 4.9 309 16.7 100170 95
2006-08-17 07:07 51°15.398 2°53.138 4.9 303 16.7 100180 95
2006-08-17 07:08 51°15.479 2°52.857 5.5 303 16.7 100170 95
2006-08-17 07:09 51°15.562 2°52.579 6.4 304 16.7 100170 95
2006-08-17 07:10 51°15.625 2°52.29 6.4 242 16.7 100170 95
2006-08-17 07:11 51°15.706 2°52.008 5 246 16.7 100180 95
2006-08-17 07:12 51°15.775 2°51.726 6.1 244 16.8 100170 95
2006-08-17 07:13 51°15.849 2°51.446 5.1 302 16.8 100170 95
2006-08-17 07:14 51°15.907 2°51.156 6.7 307 16.8 100170 95
2006-08-17 07:15 51°15.961 2°50.865 8.3 303 16.8 100170 95
2006-08-17 07:16 51°16.013 2°50.574 7.3 241 16.8 100180 95
2006-08-17 07:17 51°16.054 2°50.279 7.2 306 16.8 100180 95
2006-08-17 07:18 51°16.104 2°49.985 7.6 301 16.8 100180 95
2006-08-17 07:19 51°16.153 2°49.692 8.3 238 16.8 100180 95
2006-08-17 07:20 51°16.193 2°49.397 8.4 309 16.8 100190 95
2006-08-17 07:21 51°16.249 2°49.108 8.9 300 16.8 100190 95
2006-08-17 07:22 51°16.289 2°48.822 8.1 309 16.8 100180 95
2006-08-17 07:23 51°16.34 2°48.538 7.3 235 16.8 100180 95
2006-08-17 07:24 51°16.385 2°48.253 8.3 307 16.8 100180 95
2006-08-17 07:25 51°16.438 2°47.969 8.7 241 16.9 100190 96
2006-08-17 07:26 51°16.494 2°47.684 8.3 239 16.8 100190 96
2006-08-17 07:27 51°16.545 2°47.397 8.2 240 16.8 100190 96
2006-08-17 07:28 51°16.608 2°47.11 7.1 239 16.8 100190 96
2006-08-17 07:29 51°16.67 2°46.821 7.6 302 16.8 100190 96
2006-08-17 07:30 51°16.73 2°46.537 7.6 237 16.8 100190 96
2006-08-17 07:31 51°16.818 2°46.254 7.9 308 16.8 100190 96
2006-08-17 07:32 51°16.906 2°45.972 7.7 303 16.9 100190 96
2006-08-17 07:33 51°16.996 2°45.69 7.5 33 16.9 100190 96
2006-08-17 07:34 51°17.09 2°45.41 8.3 307 16.9 100190 96
2006-08-17 07:35 51°17.183 2°45.132 8 238 16.9 100200 96
2006-08-17 07:36 51°17.273 2°44.857 8.4 31 16.9 100190 96
2006-08-17 07:37 51°17.364 2°44.583 7.8 305 17 100190 96
2006-08-17 07:38 51°17.454 2°44.305 7.6 301 16.9 100200 96
2006-08-17 07:39 51°17.543 2°44.025 7.7 32 17 100190 96
2006-08-17 07:40 51°17.631 2°43.747 7.6 307 17 100190 96
2006-08-17 07:41 51°17.719 2°43.476 7.3 236 17 100190 96
2006-08-17 07:42 51°17.821 2°43.206 7 302 17 100190 96
2006-08-17 07:43 51°17.922 2°42.94 6.4 35 17 100200 96
2006-08-17 07:44 51°18.023 2°42.657 6.9 36 17 100190 96
2006-08-17 07:45 51°18.121 2°42.38 7.3 302 17 100190 96
2006-08-17 07:46 51°18.216 2°42.108 6.7 235 17 100190 96
2006-08-17 07:47 51°18.318 2°41.84 7.9 302 17 100200 96
2006-08-17 07:48 51°18.414 2°41.567 6.9 34 17 100200 96
2006-08-17 07:49 51°18.513 2°41.305 6.9 233 17.1 100200 96
2006-08-17 07:50 51°18.622 2°41.042 6.1 38 17.1 100200 96
2006-08-17 07:51 51°18.759 2°40.814 7 35 17.1 100200 96
2006-08-17 07:52 51°18.886 2°40.582 6.4 39 17.1 100200 95
2006-08-17 07:53 51°19.017 2°40.338 6.9 40 17.1 100190 95
2006-08-17 07:54 51°19.146 2°40.094 7.4 33 17.2 100190 95
2006-08-17 07:55 51°19.272 2°39.833 7.8 301 17.1 100190 94
2006-08-17 07:56 51°19.406 2°39.583 7.7 303 17.1 100190 94
2006-08-17 07:57 51°19.532 2°39.336 8.4 307 17.2 100190 93
2006-08-17 07:58 51°19.636 2°39.049 9 34 17.2 100180 92
2006-08-17 07:59 51°19.745 2°38.778 8 303 17.2 100180 91
2006-08-17 08:00 51°19.821 2°38.488 8.8 307 17.3 100180 91
2006-08-17 08:01 51°19.892 2°38.194 8.9 301 17.3 100180 91
2006-08-17 08:02 51°19.949 2°37.899 7.8 304 17.3 100180 91
2006-08-17 08:03 51°20.014 2°37.623 7.8 305 17.3 100180 90
2006-08-17 08:04 51°20.053 2°37.408 6.8 303 17.3 100180 90
2006-08-17 08:05 51°20.067 2°37.293 6.4 301 17.3 100190 90
2006-08-17 08:06 51°20.087 2°37.2 5.9 301 17.3 100190 89
2006-08-17 08:07 51°20.092 2°37.144 4.9 302 17.3 100190 89
2006-08-17 08:08 51°20.106 2°37.154 4 309 17.3 100200 89
2006-08-17 08:09 51°20.123 2°37.173 4.6 308 17.4 100200 90
2006-08-17 08:10 51°20.133 2°37.184 4.9 308 17.3 100200 89
2006-08-17 08:11 51°20.131 2°37.177 5.4 302 17.3 100200 89
2006-08-17 08:12 51°20.13 2°37.174 4.6 331 17.2 100200 88
2006-08-17 08:13 51°20.131 2°37.176 4.5 333 17.3 100190 89
2006-08-17 08:14 51°20.132 2°37.18 4.6 335 17.4 100190 89
2006-08-17 08:15 51°20.131 2°37.181 5.4 333 17.4 100200 89
2006-08-17 08:16 51°20.13 2°37.18 4.6 333 17.3 100200 88
2006-08-17 08:17 51°20.129 2°37.18 4.7 332 17.4 100200 88
2006-08-17 08:18 51°20.129 2°37.181 4.1 333 17.4 100200 89
2006-08-17 08:19 51°20.13 2°37.183 4.4 330 17.4 100190 88
2006-08-17 08:20 51°20.13 2°37.182 4.3 323 17.4 100200 88
2006-08-17 08:21 51°20.13 2°37.179 4.1 308 17.4 100200 87
2006-08-17 08:22 51°20.131 2°37.178 4.4 325 17.4 100200 87
2006-08-17 08:23 51°20.131 2°37.179 4.7 328 17.5 100200 87
2006-08-17 08:24 51°20.131 2°37.179 4.9 325 17.4 100200 87
2006-08-17 08:25 51°20.132 2°37.179 4.1 327 17.4 100200 87
2006-08-17 08:26 51°20.132 2°37.178 4.1 300 17.5 100200 87
2006-08-17 08:27 51°20.132 2°37.176 4 320 17.6 100200 87
2006-08-17 08:28 51°20.132 2°37.175 3.7 323 17.6 100200 87
2006-08-17 08:29 51°20.132 2°37.175 4.6 326 17.6 100200 87
2006-08-17 08:30 51°20.133 2°37.176 4.7 328 17.6 100210 86
2006-08-17 08:31 51°20.131 2°37.178 4.8 301 17.7 100210 86
2006-08-17 08:32 51°20.13 2°37.18 4.3 328 17.7 100200 86
2006-08-17 08:33 51°20.129 2°37.18 4.9 302 17.7 100200 85
2006-08-17 08:34 51°20.129 2°37.181 3.9 302 17.7 100200 85
2006-08-17 08:35 51°20.129 2°37.182 4.2 305 17.8 100210 85
2006-08-17 08:36 51°20.129 2°37.181 4.7 302 17.8 100210 85
2006-08-17 08:37 51°20.131 2°37.178 4.4 308 17.8 100200 84
2006-08-17 08:38 51°20.133 2°37.175 4.7 307 17.8 100210 85
2006-08-17 08:39 51°20.133 2°37.171 5.2 301 17.8 100210 85
2006-08-17 08:40 51°20.134 2°37.168 5.4 305 17.8 100210 85
2006-08-17 08:41 51°20.134 2°37.167 5.4 39 17.8 100210 85
2006-08-17 08:42 51°20.135 2°37.167 5.1 307 17.8 100210 85
2006-08-17 08:43 51°20.135 2°37.166 6.1 303 17.8 100210 85
2006-08-17 08:44 51°20.136 2°37.165 5.5 303 17.8 100210 85
2006-08-17 08:45 51°20.136 2°37.164 5.7 34 17.8 100210 85
2006-08-17 08:46 51°20.135 2°37.163 5.5 302 17.8 100210 86
2006-08-17 08:47 51°20.136 2°37.163 5.4 309 17.8 100220 87
2006-08-17 08:48 51°20.136 2°37.162 5.6 309 17.7 100220 87
2006-08-17 08:49 51°20.136 2°37.161 5.6 33 17.7 100210 86
2006-08-17 08:50 51°20.134 2°37.161 5.3 307 17.7 100210 87
2006-08-17 08:51 51°20.135 2°37.162 5.1 303 17.6 100220 87
2006-08-17 08:52 51°20.136 2°37.164 6.1 319 17.7 100220 87
2006-08-17 08:53 51°20.136 2°37.164 5.7 306 17.6 100210 87
2006-08-17 08:54 51°20.136 2°37.163 6.2 304 17.6 100220 87
2006-08-17 08:55 51°20.135 2°37.161 6.2 308 17.6 100220 87
2006-08-17 08:56 51°20.136 2°37.159 5.9 309 17.5 100220 87
2006-08-17 08:57 51°20.136 2°37.158 6.1 300 17.5 100220 87
2006-08-17 08:58 51°20.137 2°37.158 7 325 17.6 100220 87
2006-08-17 08:59 51°20.137 2°37.159 6.8 305 17.6 100220 87
2006-08-17 09:00 51°20.137 2°37.159 7.1 302 17.6 100230 87
2006-08-17 09:01 51°20.137 2°37.158 7.2 303 17.7 100230 88
2006-08-17 09:02 51°20.137 2°37.158 7.1 307 17.7 100230 89
2006-08-17 09:03 51°20.138 2°37.157 6.9 303 17.7 100230 89
2006-08-17 09:04 51°20.138 2°37.154 6.7 301 17.6 100220 89
2006-08-17 09:05 51°20.137 2°37.152 7.2 301 17.6 100230 89
2006-08-17 09:06 51°20.137 2°37.15 6.9 300 17.6 100230 89
2006-08-17 09:07 51°20.139 2°37.149 6.6 304 17.6 100230 89
2006-08-17 09:08 51°20.139 2°37.15 6.7 302 17.6 100220 89
2006-08-17 09:09 51°20.138 2°37.152 5.8 322 17.6 100220 89
2006-08-17 09:10 51°20.137 2°37.152 6.4 301 17.7 100220 89
2006-08-17 09:11 51°20.138 2°37.152 5.6 300 17.6 100230 88
2006-08-17 09:12 51°20.139 2°37.152 6.6 306 17.7 100220 88
2006-08-17 09:13 51°20.139 2°37.151 6.3 303 17.7 100220 88
2006-08-17 09:14 51°20.138 2°37.151 6.4 300 17.6 100220 88
2006-08-17 09:15 51°20.138 2°37.152 6 301 17.6 100220 87
2006-08-17 09:16 51°20.139 2°37.154 6.6 325 17.6 100230 87
2006-08-17 09:17 51°20.139 2°37.154 6.4 326 17.6 100220 87
2006-08-17 09:18 51°20.138 2°37.155 6 323 17.6 100220 86
2006-08-17 09:19 51°20.137 2°37.156 6 324 17.7 100230 87
2006-08-17 09:20 51°20.137 2°37.156 6.2 324 17.7 100220 87
2006-08-17 09:21 51°20.138 2°37.155 5.5 303 17.7 100220 87
2006-08-17 09:22 51°20.138 2°37.152 5.9 300 17.7 100220 87
2006-08-17 09:23 51°20.137 2°37.149 6.4 302 17.7 100220 87
2006-08-17 09:24 51°20.136 2°37.146 6.6 301 17.6 100220 87
2006-08-17 09:25 51°20.136 2°37.145 6.5 302 17.6 100220 86
2006-08-17 09:26 51°20.136 2°37.147 6.7 330 17.7 100220 86
2006-08-17 09:27 51°20.137 2°37.149 5.4 336 17.6 100220 85
2006-08-17 09:28 51°20.137 2°37.153 7 333 17.7 100220 86
2006-08-17 09:29 51°20.137 2°37.154 5.8 300 17.7 100230 86
2006-08-17 09:30 51°20.137 2°37.153 6.9 300 17.7 100220 87
2006-08-17 09:31 51°20.138 2°37.15 7.2 301 17.8 100220 87
2006-08-17 09:32 51°20.137 2°37.146 7.2 306 17.7 100220 87
2006-08-17 09:33 51°20.136 2°37.143 6.7 325 17.7 100220 87
2006-08-17 09:34 51°20.136 2°37.143 6.5 334 17.6 100230 87
2006-08-17 09:35 51°20.137 2°37.147 6.4 338 17.6 100220 87
2006-08-17 09:36 51°20.137 2°37.152 6.8 334 17.6 100220 88
2006-08-17 09:37 51°20.135 2°37.154 6.2 303 17.6 100220 88
2006-08-17 09:38 51°20.134 2°37.153 6.3 328 17.6 100230 88
2006-08-17 09:39 51°20.136 2°37.152 6.3 303 17.6 100230 88
2006-08-17 09:40 51°20.138 2°37.15 6.5 300 17.6 100230 89
2006-08-17 09:41 51°20.136 2°37.146 7.3 308 17.7 100220 90
2006-08-17 09:42 51°20.134 2°37.142 6.8 304 17.6 100220 89
2006-08-17 09:43 51°20.135 2°37.139 5.8 330 17.5 100220 89
2006-08-17 09:44 51°20.136 2°37.14 5.6 333 17.5 100230 88
2006-08-17 09:45 51°20.137 2°37.143 6.3 341 17.5 100220 88
2006-08-17 09:46 51°20.137 2°37.146 5.9 339 17.6 100220 88
2006-08-17 09:47 51°20.137 2°37.15 6.1 336 17.6 100220 88
2006-08-17 09:48 51°20.136 2°37.151 5 303 17.6 100220 88
2006-08-17 09:49 51°20.136 2°37.148 5.6 303 17.7 100220 89
2006-08-17 09:50 51°20.136 2°37.143 4.9 305 17.7 100210 89
2006-08-17 09:51 51°20.134 2°37.139 4.5 301 17.8 100210 89
2006-08-17 09:52 51°20.133 2°37.136 4.8 319 17.8 100210 89
2006-08-17 09:53 51°20.131 2°37.133 4.7 300 17.8 100210 89
2006-08-17 09:54 51°20.132 2°37.132 4.8 329 17.8 100210 89
2006-08-17 09:55 51°20.133 2°37.131 4.8 336 17.8 100210 88
2006-08-17 09:56 51°20.135 2°37.133 4.1 337 17.8 100210 88
2006-08-17 09:57 51°20.136 2°37.136 3.8 334 17.9 100200 88
2006-08-17 09:58 51°20.135 2°37.138 3.8 339 17.9 100210 88
2006-08-17 09:59 51°20.135 2°37.139 3.6 338 17.9 100210 88
2006-08-17 10:00 51°20.134 2°37.14 3.6 336 17.9 100210 87
2006-08-17 10:01 51°20.134 2°37.14 3.1 334 17.9 100200 87
2006-08-17 10:02 51°20.135 2°37.139 3.1 332 17.9 100200 87
2006-08-17 10:03 51°20.135 2°37.138 3.4 334 17.9 100200 87
2006-08-17 10:04 51°20.135 2°37.137 3.2 334 17.9 100210 87
2006-08-17 10:05 51°20.134 2°37.136 3.1 330 17.9 100210 87
2006-08-17 10:06 51°20.133 2°37.137 3 334 18 100210 87
2006-08-17 10:07 51°20.133 2°37.136 3.3 334 18 100210 87
2006-08-17 10:08 51°20.133 2°37.135 3.2 337 18 100210 87
2006-08-17 10:09 51°20.133 2°37.135 3.1 338 18 100210 87
2006-08-17 10:10 51°20.134 2°37.134 3.4 340 18 100210 87
2006-08-17 10:11 51°20.135 2°37.135 3.5 344 18 100210 86
2006-08-17 10:12 51°20.134 2°37.136 2.7 340 17.9 100210 86
2006-08-17 10:13 51°20.133 2°37.137 3 342 17.9 100210 87
2006-08-17 10:14 51°20.133 2°37.137 3.3 346 17.9 100210 87
2006-08-17 10:15 51°20.133 2°37.137 3.6 349 17.9 100200 87
2006-08-17 10:16 51°20.134 2°37.136 3.4 346 17.9 100210 87
2006-08-17 10:17 51°20.134 2°37.135 3.5 343 17.8 100210 87
2006-08-17 10:18 51°20.134 2°37.135 3.3 344 17.8 100210 86
2006-08-17 10:19 51°20.134 2°37.134 3.4 346 17.8 100210 87
2006-08-17 10:20 51°20.134 2°37.134 3.6 343 17.9 100210 86
2006-08-17 10:21 51°20.132 2°37.134 3.3 344 17.9 100210 86
2006-08-17 10:22 51°20.127 2°37.135 3.3 344 17.9 100210 86
2006-08-17 10:23 51°20.121 2°37.137 3.5 342 18 100210 86
2006-08-17 10:24 51°20.115 2°37.137 3.4 340 18 100210 85
2006-08-17 10:25 51°20.109 2°37.135 3.4 335 18.1 100220 85
2006-08-17 10:26 51°20.102 2°37.13 3.2 331 18.1 100220 85
2006-08-17 10:27 51°20.096 2°37.124 3.3 332 18.2 100210 85
2006-08-17 10:28 51°20.092 2°37.117 3.7 328 18.2 100210 84
2006-08-17 10:29 51°20.087 2°37.109 3.5 325 18.2 100210 83
2006-08-17 10:30 51°20.076 2°37.1 3.5 326 18.2 100210 83
2006-08-17 10:31 51°20.043 2°37.109 4.5 336 18.3 100210 83
2006-08-17 10:32 51°20.002 2°37.211 6.7 338 18.3 100210 82
2006-08-17 10:33 51°19.924 2°37.389 8.2 337 18.2 100200 83
2006-08-17 10:34 51°19.829 2°37.604 8.9 336 18.2 100200 83
2006-08-17 10:35 51°19.711 2°37.846 9.7 338 18.2 100200 83
2006-08-17 10:36 51°19.602 2°38.089 9.6 335 18.2 100200 83
2006-08-17 10:37 51°19.48 2°38.331 9.8 337 18.2 100200 83
2006-08-17 10:38 51°19.362 2°38.569 9 336 18.2 100200 83
2006-08-17 10:39 51°19.246 2°38.823 9.8 336 18.2 100210 83
2006-08-17 10:40 51°19.129 2°39.073 9.7 335 18.2 100200 83
2006-08-17 10:41 51°19.015 2°39.322 9.9 333 18.2 100210 83
2006-08-17 10:42 51°18.903 2°39.581 8.9 334 18.2 100220 84
2006-08-17 10:43 51°18.794 2°39.833 9.7 335 18.2 100220 85
2006-08-17 10:44 51°18.689 2°40.075 9.7 337 18.1 100210 84
2006-08-17 10:45 51°18.582 2°40.325 9.9 336 18.1 100200 84
2006-08-17 10:46 51°18.475 2°40.564 9.8 336 18.1 100210 83
2006-08-17 10:47 51°18.393 2°40.761 6.6 339 18.2 100220 84
2006-08-17 10:48 51°18.38 2°40.855 4.5 353 18.3 100220 84
2006-08-17 10:49 51°18.379 2°40.885 4.2 350 18.1 100230 84
2006-08-17 10:50 51°18.374 2°40.892 3.6 349 18 100230 84
2006-08-17 10:51 51°18.37 2°40.891 3.7 349 18 100230 85
2006-08-17 10:52 51°18.367 2°40.884 3.3 349 18 100240 84
2006-08-17 10:53 51°18.366 2°40.875 3.6 348 17.9 100240 84
2006-08-17 10:54 51°18.365 2°40.864 3.6 348 17.9 100240 85
2006-08-17 10:55 51°18.365 2°40.85 3.3 352 17.9 100250 85
2006-08-17 10:56 51°18.365 2°40.833 3.4 350 18 100240 86
2006-08-17 10:57 51°18.366 2°40.816 3.6 348 18 100250 86
2006-08-17 10:58 51°18.367 2°40.799 3.5 343 18 100240 86
2006-08-17 10:59 51°18.362 2°40.787 3.8 329 18 100250 85
2006-08-17 11:00 51°18.341 2°40.769 3.7 35 18.1 100240 85
2006-08-17 11:01 51°18.322 2°40.728 4.1 250 18.2 100250 85
2006-08-17 11:02 51°18.311 2°40.647 3.5 256 18.3 100250 85
2006-08-17 11:03 51°18.31 2°40.575 2.3 262 18.4 100250 85
2006-08-17 11:04 51°18.31 2°40.512 2.8 262 18.5 100240 85
2006-08-17 11:05 51°18.311 2°40.458 2.7 269 18.5 100250 84
2006-08-17 11:06 51°18.312 2°40.41 2.9 267 18.5 100250 84
2006-08-17 11:07 51°18.315 2°40.365 2.6 266 18.6 100250 84
2006-08-17 11:08 51°18.316 2°40.322 2.2 264 18.6 100240 84
2006-08-17 11:09 51°18.319 2°40.276 2.8 270 18.6 100250 83
2006-08-17 11:10 51°18.353 2°40.204 1.3 354 18.6 100250 84
2006-08-17 11:11 51°18.406 2°40.248 4.7 350 18.6 100250 83
2006-08-17 11:12 51°18.433 2°40.369 4.5 352 18.5 100240 84
2006-08-17 11:13 51°18.445 2°40.443 4.1 354 18.5 100240 85
2006-08-17 11:14 51°18.444 2°40.479 4.2 345 18.4 100240 86
2006-08-17 11:15 51°18.439 2°40.497 4 344 18.4 100240 87
2006-08-17 11:16 51°18.431 2°40.502 3.5 343 18.4 100250 87
2006-08-17 11:17 51°18.424 2°40.498 3.6 337 18.5 100250 88
2006-08-17 11:18 51°18.42 2°40.489 3.7 341 18.5 100250 88
2006-08-17 11:19 51°18.415 2°40.475 3.7 338 18.6 100250 87
2006-08-17 11:20 51°18.412 2°40.46 3.7 336 18.6 100250 86
2006-08-17 11:21 51°18.409 2°40.443 3 332 18.6 100250 86
2006-08-17 11:22 51°18.407 2°40.424 3.3 328 18.7 100250 86
2006-08-17 11:23 51°18.405 2°40.403 3.3 325 18.8 100250 85
2006-08-17 11:24 51°18.403 2°40.381 2.9 324 18.8 100240 85
2006-08-17 11:25 51°18.402 2°40.357 3.1 323 18.9 100250 85
2006-08-17 11:26 51°18.402 2°40.327 2.8 330 19 100240 84
2006-08-17 11:27 51°18.393 2°40.315 3.4 343 19 100250 84
2006-08-17 11:28 51°18.409 2°40.379 5.3 347 18.9 100240 84
2006-08-17 11:29 51°18.43 2°40.57 7.8 337 18.9 100230 85
2006-08-17 11:30 51°18.414 2°40.845 9.3 339 18.9 100230 85
2006-08-17 11:31 51°18.387 2°41.126 9.8 338 18.9 100230 83
2006-08-17 11:32 51°18.377 2°41.41 9.5 336 19 100220 82
2006-08-17 11:33 51°18.365 2°41.697 9.6 334 19 100230 80
2006-08-17 11:34 51°18.358 2°41.985 8.5 335 19.1 100230 81
2006-08-17 11:35 51°18.346 2°42.267 7.9 333 19.1 100230 82
2006-08-17 11:36 51°18.331 2°42.439 5.6 337 19.1 100240 82
2006-08-17 11:37 51°18.342 2°42.605 6.8 338 19.1 100240 82
2006-08-17 11:38 51°18.354 2°42.823 7.6 338 19 100240 82
2006-08-17 11:39 51°18.387 2°43.04 6.8 337 19 100230 82
2006-08-17 11:40 51°18.4 2°43.173 4.8 347 19.1 100240 82
2006-08-17 11:41 51°18.45 2°43.249 4.6 345 19.1 100240 82
2006-08-17 11:42 51°18.475 2°43.312 4 351 19 100240 83
2006-08-17 11:43 51°18.499 2°43.339 2.9 3 19 100240 84
2006-08-17 11:44 51°18.519 2°43.337 2.9 16 19 100250 84
2006-08-17 11:45 51°18.536 2°43.322 2.8 22 19 100250 84
2006-08-17 11:46 51°18.547 2°43.3 2.4 29 19.1 100250 83
2006-08-17 11:47 51°18.552 2°43.275 2.4 33 19.2 100250 83
2006-08-17 11:48 51°18.54 2°43.25 3.1 41 19.2 100250 83
2006-08-17 11:49 51°18.514 2°43.23 2.8 42 19.3 100250 83
2006-08-17 11:50 51°18.479 2°43.214 3.4 44 19.3 100250 82
2006-08-17 11:51 51°18.441 2°43.2 3.7 40 19.2 100240 82
2006-08-17 11:52 51°18.411 2°43.176 3.2 33 19.2 100250 81
2006-08-17 11:53 51°18.428 2°43.169 3.8 359 19.3 100250 82
2006-08-17 11:54 51°18.459 2°43.222 4.4 342 19.2 100250 81
2006-08-17 11:55 51°18.47 2°43.277 4 349 19.2 100250 81
2006-08-17 11:56 51°18.483 2°43.302 3.5 350 19.2 100250 81
2006-08-17 11:57 51°18.494 2°43.32 3.8 343 19.2 100240 82
2006-08-17 11:58 51°18.487 2°43.336 3.1 327 19.2 100250 82
2006-08-17 11:59 51°18.475 2°43.333 3.2 321 19.3 100250 82
2006-08-17 12:00 51°18.467 2°43.314 2.5 39 19.4 100250 82
2006-08-17 12:01 51°18.46 2°43.288 2.6 247 19.5 100250 82
2006-08-17 12:02 51°18.456 2°43.257 3.2 255 19.6 100240 82
2006-08-17 12:03 51°18.443 2°43.232 3.1 235 19.7 100250 82
2006-08-17 12:04 51°18.42 2°43.238 3.6 329 19.8 100240 82
2006-08-17 12:05 51°18.437 2°43.27 4 355 19.7 100230 81
2006-08-17 12:06 51°18.475 2°43.301 3.9 338 19.5 100240 81
2006-08-17 12:07 51°18.477 2°43.332 2.8 335 19.5 100240 83
2006-08-17 12:08 51°18.469 2°43.333 3 318 19.5 100240 83
2006-08-17 12:09 51°18.461 2°43.313 2.1 39 19.5 100240 82
2006-08-17 12:10 51°18.457 2°43.283 2 235 19.6 100230 82
2006-08-17 12:11 51°18.46 2°43.249 1.8 250 19.7 100230 81
2006-08-17 12:12 51°18.39 2°43.268 6 322 19.8 100230 81
2006-08-17 12:13 51°18.236 2°43.385 8 325 19.8 100220 79
2006-08-17 12:14 51°18.076 2°43.535 7.8 323 19.9 100220 79
2006-08-17 12:15 51°17.913 2°43.693 7.9 321 20 100220 79
2006-08-17 12:16 51°17.758 2°43.856 8 321 20 100220 79
2006-08-17 12:17 51°17.6 2°44.035 8 321 20 100220 79
2006-08-17 12:18 51°17.453 2°44.227 7.4 322 20 100210 80
2006-08-17 12:19 51°17.307 2°44.414 7.5 323 20.1 100210 80
2006-08-17 12:20 51°17.173 2°44.624 7.8 322 20.2 100210 81
2006-08-17 12:21 51°17.036 2°44.826 8.2 321 20.2 100210 80
2006-08-17 12:22 51°16.905 2°45.035 8.2 322 20.2 100210 80
2006-08-17 12:23 51°16.785 2°45.26 7.7 323 20.2 100210 80
2006-08-17 12:24 51°16.665 2°45.496 7.4 325 20.2 100210 80
2006-08-17 12:25 51°16.556 2°45.74 7.5 330 20.2 100210 79
2006-08-17 12:26 51°16.446 2°45.985 8.3 336 20.1 100210 79
2006-08-17 12:27 51°16.336 2°46.229 8.2 337 20.2 100200 77
2006-08-17 12:28 51°16.244 2°46.482 7.9 335 20.5 100210 76
2006-08-17 12:29 51°16.19 2°46.767 8.4 335 20.6 100200 75
2006-08-17 12:30 51°16.152 2°47.047 7.5 337 20.7 100210 74
2006-08-17 12:31 51°16.103 2°47.319 7.9 340 20.6 100210 74
2006-08-17 12:32 51°16.047 2°47.584 8.1 339 20.6 100200 74
2006-08-17 12:33 51°15.988 2°47.853 8.6 339 20.6 100200 73
2006-08-17 12:34 51°15.931 2°48.128 8.7 342 20.7 100200 72
2006-08-17 12:35 51°15.905 2°48.404 8.2 341 20.6 100200 71
2006-08-17 12:36 51°15.856 2°48.688 9 339 20.7 100190 72
2006-08-17 12:37 51°15.815 2°48.965 10 344 20.7 100190 70
2006-08-17 12:38 51°15.775 2°49.246 8.2 346 20.8 100190 68
2006-08-17 12:39 51°15.734 2°49.533 8 349 20.7 100190 69
2006-08-17 12:40 51°15.696 2°49.812 8.3 345 20.8 100190 70
2006-08-17 12:41 51°15.664 2°50.093 8.9 343 20.7 100190 71
2006-08-17 12:42 51°15.612 2°50.369 11.3 340 20.8 100190 70
2006-08-17 12:43 51°15.557 2°50.649 12.4 346 20.8 100170 70
2006-08-17 12:44 51°15.522 2°50.922 12.3 348 20.8 100170 68
2006-08-17 12:45 51°15.476 2°51.205 12.2 348 20.8 100180 69
2006-08-17 12:46 51°15.426 2°51.481 12 343 20.8 100170 67
2006-08-17 12:47 51°15.374 2°51.758 11 345 21 100180 65
2006-08-17 12:48 51°15.325 2°52.03 9.8 346 21.1 100180 65
2006-08-17 12:49 51°15.277 2°52.313 11.3 340 21.1 100190 66
2006-08-17 12:50 51°15.227 2°52.587 10.9 344 21.2 100180 65
2006-08-17 12:51 51°15.186 2°52.863 10.6 349 21.2 100170 64
2006-08-17 12:52 51°15.129 2°53.133 10.2 347 21.2 100170 64
2006-08-17 12:53 51°15.067 2°53.38 12.4 345 21.2 100170 63
2006-08-17 12:54 51°14.986 2°53.634 13.2 342 21.2 100160 63
2006-08-17 12:55 51°14.879 2°53.875 10.3 340 21.2 100170 62
2006-08-17 12:56 51°14.766 2°54.114 11.1 346 21.3 100170 61
2006-08-17 12:57 51°14.658 2°54.357 12.8 343 21.3 100180 61
2006-08-17 12:58 51°14.553 2°54.602 11.3 343 21.4 100180 60
2006-08-17 12:59 51°14.453 2°54.841 9.4 344 21.5 100180 60
2006-08-17 13:00 51°14.357 2°55.071 7.8 338 21.5 100190 61
2006-08-17 13:01 51°14.246 2°55.28 9.2 338 21.6 100180 61
2006-08-17 13:02 51°14.128 2°55.417 8 334 21.6 100180 59
2006-08-17 13:03 51°14.035 2°55.49 7.8 332 21.6 100190 60
2006-08-17 13:04 51°13.945 2°55.557 7.3 330 21.7 100190 60
2006-08-17 13:05 51°13.851 2°55.623 8.4 329 21.7 100180 61
2006-08-17 13:06 51°13.762 2°55.699 6.7 331 21.7 100190 61
2006-08-17 13:07 51°13.7 2°55.816 6.4 333 21.7 100180 61
2006-08-17 13:08 51°13.651 2°55.928 8.1 334 21.7 100190 61
2006-08-17 13:09 51°13.619 2°56.025 5.2 334 21.7 100190 61
2006-08-17 13:10 51°13.604 2°56.094 3.7 349 21.7 100190 61
2006-08-17 13:11 51°13.601 2°56.098 4 330 21.7 100190 61